FREGAT DEB, 46238

Orbit data source: Space-Track

FREGAT DEB, 46238 is space debris in LEO originally from a launch on Mon, 18 Jul 2011 UTC launched from the Tyuratam Missile And Space Complex (TTMTR). Debris objects in space refer to the collection of defunct objects orbiting the Earth. Examples of debris include non-operational satellites, rocket bodies, and fragments generated from explosions, collisions, or faulty payload assembly.

Loading next visibility...
Identifier
46238, 2011-037JY
Orbit
LEO
Country
Flag of CISCIS
Related business
Manufacturer
Lavochkin
Mission
Spacecraft
Bus & Motor
Unknown
Mass
Unknown
Launch date (UTC)
2011-07-18 (15 years ago)
Launch vehicle
Unknown
Launch site
Tyuratam Missile And Space Complex (TTMTR)
Object type
Payload
Rocket body
Debris
Shape & HBR
Unknown shape, 0.1 m
Radar Cross Section
Medium (>0.1 m² and <1 m²)

Expand to show TLE details & history
Last TLE update: 1 day ago

TLE from 1 day ago
0 FREGAT DEB
1 46238U 11037JY  26035.68830546  .00005509  00000-0  16076+0 0  9999
2 46238  50.5478 199.7221 1122845 125.3558 245.7406 10.36265689208012
Epoch: 2026-02-04T16:31Z
TLE epoch observation values (Epoch: 2026-02-04T16:31:09.591Z)
Latitude
-0.00002°
Longitude
177.08082°
Altitude
3,005.88 km
Speed
6.334 km/s
True Right ascension
13h 18m 53s
True Declination
0° 00' 00"
Sunlit
Object was in daylight at epoch
Visualization orbit readout
Latitude
Unknown
Longitude
Unknown
Altitude
Unknown
Speed
Unknown
Apparent Right ascension
Unknown
Apparent Declination
Unknown
Sunlit
N/A
Visualization observer readout
Local Sidereal Time
01:34:21
Azimuth
Unknown
Elevation
Unknown
Doppler factor
Unknown
Orbital elements
Apogee altitude
3,507.318 km
Perigee altitude
1,511.456 km
Semi-major axis
8,887.524 km
Eccentricity
0.11228
Inclination
50.5478°
RAAN
199.7221°
Arg. of periapsis
125.3558°
True anomaly
234.71864°
Mean anomaly
245.7406°
Eccentric anomaly
240.16012°
Mean motion
2.59043 °/min
Orbital period
138.97 mins
BSTAR
0.16076
Loading maneuver chart data...
Computing Atmospheric mass density...
Loading historical data...
Loading historical data...
Loading historical data...
Loading historical data...
Loading historical data...
Loading historical data...
Loading historical data...

Documentation

Showing up to 5 results
|